Location: Spring Creek
(38.2870°N, 100.2160°W)
Time: 02:09:59
(UTC+00:00)

Cosmos 2016 Rocket - Pass Details

Date: 08 May 2021
Orbit: 946 x 1001 km, 83.0° (Epoch: 24 June)

Event Time Altitude Azimuth Distance (km) Brightness Sun altitude
Rises 09:34:28 0° 349° (N) 3,699 7.5 -20.7°
Reaches altitude 10° 09:37:02 10° 346° (NNW) 2,739 6.7 -20.3°
Maximum altitude 09:43:11 62° 268° (W) 1,087 4.0 -19.5°
Enters shadow 09:46:42 26° 196° (SSW) 1,796 4.9 -19.0°
